Peoria, IL

4:00 AM CDT on October 21, 2019 (GMT -0500)
Greater Peoria Regional

Weather History for KPIA - August, 2019

Change the Weather History Date:

Wednesday, August 21, 2019

  Actual Average Record
Temperature  
Mean Temperature 74 °F 74 °F  
Max Temperature 81 °F 84 °F 99 °F (1983)
Min Temperature 66 °F 64 °F 45 °F (1950)
Degree Days  
Heating Degree Days 0 0  
Month to date heating degree days 0 0  
Since 1 June heating degree days 5 19  
Since 1 July heating degree days 0 1  
Cooling Degree Days 8 9  
Month to date cooling degree days 221 198  
Year to date cooling degree days 933 829  
Since 1 June cooling degree days 852 748  
Growing Degree Days 24 (Base 50)    
Moisture  
Dew Point 68 °F    
Average Humidity 87    
Maximum Humidity 100    
Minimum Humidity 67    
Precipitation  
Precipitation T in 0.11 in 1.40 in (1964)
Month to date precipitation 3.08 2.18  
Year to date precipitation 32.76 23.89  
Snow  
Snow 0.00 in 0.00 in 0.00 in ()
Month to date snowfall 0.0 0.0  
Since 1 June snowfall 0.0 0.0  
Since 1 July snowfall 0.0 0.0  
Snow Depth 0.00 in    
Sea Level Pressure  
Sea Level Pressure 29.98 in    
Wind  
Wind Speed 2 mph ()    
Max Wind Speed 14 mph    
Max Gust Speed 19 mph    
Visibility 7.2 miles    
Events Fog , Rain    
T = Trace of Precipitation, MM = Missing Value Source: Averaged Metar Reports

Daily Weather History Graph

Daily Weather History Graph

Search for Another Location

Airport or City:

Astronomy

Aug. 21, 2019 Rise Set
Actual Time 6:14 AM CDT 7:48 PM CDT
Civil Twilight 5:45 AM CDT 8:17 PM CDT
Nautical Twilight 5:11 AM CDT 8:51 PM CDT
Astronomical Twilight 4:34 AM CDT 9:28 PM CDT
Moon 11:04 PM CDT 11:52 AM CDT
Length of Visible Light 14h 31m
Length of Day
13h 33m
Waning Gibbous, 69% of the Moon is Illuminated
Aug 21
Waning Gibbous
Aug 23
Last Quarter
Aug 30
New
Sep 5
First Quarter
Sep 13
Full

Hourly Weather History & Observations

Time (CDT) Temp. Heat Index Dew Point Humidity Pressure Visibility Wind Dir Wind Speed Gust Speed Precip Events Conditions
12:54 AM 70.0 °F - 66.9 °F 90% 29.99 in 10.0 mi Calm Calm - N/A   Clear
1:54 AM 69.1 °F - 66.0 °F 90% 29.97 in 10.0 mi Calm Calm - N/A   Clear
2:54 AM 68.0 °F - 66.0 °F 93% 29.96 in 10.0 mi Calm Calm - N/A   Clear
3:54 AM 68.0 °F - 66.0 °F 93% 29.94 in 10.0 mi Calm Calm - N/A   Clear
4:30 AM 68.0 °F - 64.9 °F 90% 29.94 in 10.0 mi ENE 3.5 mph - N/A   Mostly Cloudy
4:38 AM 68.0 °F - 66.0 °F 93% 29.94 in 9.0 mi Calm Calm - N/A   Overcast
4:50 AM 68.0 °F - 66.2 °F 94% 29.93 in 9.0 mi Calm Calm - N/A   Mostly Cloudy
4:54 AM 68.0 °F - 66.0 °F 93% 29.91 in 8.0 mi Calm Calm - N/A   Scattered Clouds
5:10 AM 68.0 °F - 66.0 °F 93% 29.93 in 7.0 mi Calm Calm - N/A   Clear
5:38 AM 68.0 °F - 66.0 °F 93% 29.95 in 4.0 mi Calm Calm - N/A   Scattered Clouds
5:54 AM 66.9 °F - 64.9 °F 93% 29.95 in 9.0 mi Calm Calm - N/A   Scattered Clouds
6:01 AM 66.9 °F - 64.9 °F 93% 29.96 in 6.0 mi Calm Calm - N/A   Mostly Cloudy
6:13 AM 66.9 °F - 64.9 °F 93% 29.96 in 2.5 mi SSW 3.5 mph - N/A   Mostly Cloudy
6:23 AM 66.9 °F - 64.9 °F 93% 29.96 in 1.2 mi SSW 3.5 mph - N/A   Overcast
6:25 AM 66.9 °F - 64.9 °F 93% 29.96 in 0.5 mi Calm Calm - N/A Fog Fog
6:33 AM 66.9 °F - 66.0 °F 97% 29.96 in 0.2 mi South 3.5 mph - N/A Fog Fog
6:54 AM 69.1 °F - 68.0 °F 96% 29.97 in 0.1 mi SSW 6.9 mph - N/A Fog Fog
7:54 AM 70.0 °F - 69.1 °F 97% 29.99 in 0.2 mi SW 4.6 mph - N/A Fog Fog
8:12 AM 71.1 °F - 70.0 °F 96% 30.00 in 0.5 mi WSW 4.6 mph - N/A Fog Fog
8:39 AM 71.1 °F - 70.0 °F 96% 30.00 in 1.2 mi WSW 3.5 mph - N/A   Overcast
8:54 AM 72.0 °F - 70.0 °F 93% 29.99 in 1.8 mi SSW 4.6 mph - N/A   Overcast
8:59 AM 72.0 °F - 70.0 °F 93% 29.99 in 3.0 mi SW 4.6 mph - N/A   Overcast
9:54 AM 73.0 °F - 71.1 °F 93% 29.99 in 7.0 mi WSW 3.5 mph - N/A   Overcast
10:10 AM 73.9 °F - 71.1 °F 91% 30.01 in 8.0 mi SSW 4.6 mph - N/A   Overcast
10:54 AM 75.9 °F - 71.1 °F 85% 30.02 in 8.0 mi West 8.1 mph - N/A   Overcast
11:34 AM 78.1 °F - 72.0 °F 81% 30.05 in 9.0 mi West 8.1 mph - N/A   Mostly Cloudy
11:54 AM 79.0 °F - 72.0 °F 79% 30.03 in 10.0 mi WNW 6.9 mph - N/A   Overcast
12:54 PM 79.0 °F - 72.0 °F 79% 30.04 in 10.0 mi West 10.4 mph - N/A   Overcast
1:41 PM 81.0 °F 85.2 °F 72.0 °F 74% 30.02 in 10.0 mi WNW 9.2 mph 16.1 mph 0.00 in   Scattered Clouds
1:54 PM 80.1 °F 83.2 °F 70.0 °F 71% 29.99 in 10.0 mi NNW 5.8 mph - 0.00 in   Partly Cloudy
2:54 PM 79.0 °F - 70.0 °F 74% 29.93 in 10.0 mi North - - 0.00 in   Mostly Cloudy
3:54 PM 79.0 °F - 70.0 °F 74% 29.96 in 10.0 mi Variable 4.6 mph - N/A   Scattered Clouds
4:54 PM 79.0 °F - 68.0 °F 69% 29.93 in 10.0 mi NE 4.6 mph - 0.00 in   Clear
5:54 PM 78.1 °F - 66.9 °F 68% 29.97 in 10.0 mi West 6.9 mph - N/A   Scattered Clouds
6:54 PM 77.0 °F - 68.0 °F 74% 29.97 in 10.0 mi West 5.8 mph - N/A   Clear
7:54 PM 75.0 °F - 69.1 °F 82% 29.97 in 10.0 mi WSW 5.8 mph - N/A   Clear
8:54 PM 73.9 °F - 68.0 °F 82% 29.99 in 10.0 mi West 5.8 mph - N/A   Clear
9:54 PM 73.9 °F - 68.0 °F 82% 29.99 in 10.0 mi West 4.6 mph - 0.00 in Rain Light Rain
10:45 PM 73.9 °F - 68.0 °F 82% 30.00 in 10.0 mi Calm Calm - 0.00 in   Overcast
10:54 PM 73.0 °F - 68.0 °F 84% 29.99 in 10.0 mi West 4.6 mph - 0.00 in   Overcast
11:54 PM 73.0 °F - 68.0 °F 84% 29.98 in 10.0 mi NNW 3.5 mph - N/A   Overcast